STARLINK-11157, 60122

Orbit data source: Space-Track

STARLINK-11157, 60122 is a payload satellite owned by SpaceX/Seattle (US) in LEO that was launched on Mon, 24 Jun 2024 UTC via an FALCON 9 launch vehicle from the Air Force Western Test Range (AFWTR). Payload-class satellites include a variety of spacecraft equipped with specific instruments for various scientific and technological missions. These include communications satellites like Starlink; space stations such as the ISS; scientific satellites like the Hubble; Earth observation satellites from companies like Planet Labs, Umbra, and HawkEye 360; GPS; miniature CubeSats for education and research; and military/defense satellites.

Loading next visibility...
Identifier
60122, 2024-118K
Orbit
LEO
Country
Flag of USUS
Related business
Manufacturer
SpaceX/Seattle
Mission
Operational Commercial Communications
Bus & Motor
STARLINK V2MD, Unknown motor
Mass
960 kg wet, ~910 kg dry
Launch date (UTC)
2024-06-24 (1 year ago)
Launch vehicle
FALCON 9
Launch site
Air Force Western Test Range (AFWTR)
Object type
Payload
Rocket body
Debris
Shape & HBR
Box + 2 Pan, 18.1 m
Radar Cross Section
36.964 m², Large (>1 m²)

Expand to show TLE details & history
Last TLE update: 17 hours ago

TLE from 17 hours ago
0 STARLINK-11157
1 60122U 24118K   25303.53478717 -.00000258  00000-0  27305-5 0  9990
2 60122  53.1599 142.6852 0001145  85.8511 274.2638 15.69716965 77553
Epoch: 2025-10-30T12:50Z
TLE epoch observation values (Epoch: 2025-10-30T12:50:05.611Z)
Latitude
-0°
Longitude
-88.93037°
Altitude
360.565 km
Speed
7.694 km/s
True Right ascension
09h 30m 44s
True Declination
0° 00' 00"
Sunlit
Object was in daylight at epoch
Visualization orbit readout
Latitude
Unknown
Longitude
Unknown
Altitude
Unknown
Speed
Unknown
Apparent Right ascension
Unknown
Apparent Declination
Unknown
Sunlit
N/A
Visualization observer readout
Local Sidereal Time
01:49:14
Azimuth
Unknown
Elevation
Unknown
Doppler factor
Unknown
Orbital elements
Apogee altitude
360.739 km
Perigee altitude
359.196 km
Semi-major axis
6,738.105 km
Eccentricity
0.00011
Inclination
53.1599°
RAAN
142.6852°
Arg. of periapsis
85.8511°
True anomaly
274.25072°
Mean anomaly
274.2638°
Eccentric anomaly
274.25726°
Mean motion
3.92407 °/min
Orbital period
91.74 mins
BSTAR
0.0000027305
Loading maneuver chart data...
Computing Atmospheric mass density...
Loading historical data...
Loading historical data...
Loading historical data...
Loading historical data...
Loading historical data...
Loading historical data...
Loading historical data...

Documentation

Showing up to 5 results
|